GW6797 Weather Reports


time (UTC)temp
C
wind
direction
speed
KPH
gust
KPH
rain 1hr
cm
rain 24hr
cm
rain mn
cm
humidity
%
barometer
mb
20260508004212 13 269 1.6 11.3 0.00 0.10 0.00 78 1015.4
20260508003711 13 252 4.8 11.3 0.00 0.10 0.00 77 1015.4
20260508003211 13 269 4.8 9.7 0.00 0.10 0.00 79 1015.2
20260508002710 13 259 3.2 9.7 0.00 0.10 0.00 81 1015.3
20260508002210 13 247 8.0 9.7 0.00 0.10 0.00 81 1015.5
20260508001709 13 273 4.8 9.7 0.00 0.10 0.00 80 1015.5
20260508001209 13 260 6.4 8.0 0.00 0.10 0.00 81 1015.3
20260508000208 13 259 4.8 8.0 0.00 0.10 0.00 83 1015.4
20260507235707 13 258 3.2 4.8 0.00 0.10 0.00 85 1015.4
20260507235206 13 53 0.0 4.8 0.00 0.10 0.00 85 1015.6
20260507234706 13 120 0.0 3.2 0.00 0.10 0.00 85 1015.6
20260507234205 13 244 0.0 3.2 0.00 0.10 0.00 85 1015.7
20260507233705 13 243 1.6 3.2 0.00 0.10 0.00 85 1015.8
20260507233205 13 240 0.0 3.2 0.00 0.10 0.00 86 1015.9
20260507232703 12 242 0.0 3.2 0.00 0.10 0.00 87 1015.9
20260507232204 12 242 0.0 3.2 0.00 0.10 0.00 88 1016.0
20260507231703 12 333 0.0 3.2 0.00 0.10 0.00 88 1015.8
20260507231203 12 312 3.2 4.8 0.00 0.10 0.00 88 1016.0
20260507230702 12 112 3.2 4.8 0.00 0.10 0.00 87 1016.0
20260507230202 13 201 0.0 4.8 0.00 0.10 0.00 87 1016.0
20260507225701 13 119 0.0 4.8 0.00 0.10 0.00 86 1016.1
20260507225200 13 69 1.6 4.8 0.00 0.10 0.00 85 1016.1
20260507224700 13 82 3.2 4.8 0.00 0.10 0.00 84 1016.0
20260507224200 13 60 0.0 3.2 0.00 0.10 0.00 84 1016.2
20260507223659 13 142 0.0 3.2 0.00 0.10 0.00 83 1016.3
20260507223159 13 96 3.2 3.2 0.00 0.10 0.00 82 1016.0
20260507222658 13 127 0.0 3.2 0.00 0.10 0.00 83 1015.8
20260507222158 13 283 1.6 3.2 0.00 0.10 0.00 83 1016.0
20260507221656 13 269 3.2 3.2 0.00 0.10 0.00 83 1016.0
20260507220655 13 302 3.2 6.4 0.00 0.10 0.00 82 1016.1
20260507220156 13 269 1.6 6.4 0.00 0.10 0.00 82 1016.0
20260507215655 13 234 0.0 4.8 0.00 0.10 0.10 82 1016.0
20260507215155 13 250 3.2 6.4 0.00 0.10 0.10 81 1016.2
20260507214653 13 274 3.2 6.4 0.00 0.10 0.10 80 1016.0
20260507214153 13 262 4.8 6.4 0.00 0.10 0.10 81 1016.0
20260507213652 13 325 4.8 6.4 0.00 0.10 0.10 82 1016.0
20260507213152 13 274 1.6 8.0 0.00 0.10 0.10 81 1016.1
20260507212651 13 261 4.8 8.0 0.00 0.10 0.10 81 1016.0
20260507212151 13 252 6.4 8.0 0.00 0.10 0.10 81 1016.4
20260507211151 13 238 3.2 6.4 0.00 0.10 0.10 81 1016.1
20260507210649 13 289 1.6 9.7 0.00 0.10 0.10 81 1016.2
20260507210150 13 247 9.7 9.7 0.00 0.10 0.10 81 1016.2
20260507205648 13 257 1.6 8.0 0.00 0.10 0.10 80 1016.2
20260507205148 13 297 0.0 9.7 0.00 0.10 0.10 80 1016.2
20260507204647 13 120 3.2 9.7 0.00 0.10 0.10 81 1016.0
20260507204148 13 279 4.8 9.7 0.00 0.10 0.10 81 1016.2
20260507203646 14 272 1.6 9.7 0.00 0.10 0.10 81 1016.1
20260507203146 13 290 4.8 9.7 0.00 0.10 0.10 82 1016.3
20260507202645 13 254 8.0 8.0 0.00 0.10 0.10 82 1016.1
20260507202145 14 283 3.2 9.7 0.00 0.10 0.10 82 1016.2
20260507201645 14 262 4.8 11.3 0.00 0.10 0.10 82 1016.3
20260507201144 14 207 0.0 14.5 0.00 0.10 0.10 81 1016.2
20260507200643 14 244 4.8 14.5 0.00 0.10 0.10 81 1016.2
20260507200143 14 342 9.7 9.7 0.00 0.10 0.10 81 1016.2
20260507195642 14 261 9.7 12.9 0.00 0.10 0.10 81 1016.1
20260507195141 14 301 6.4 14.5 0.00 0.10 0.10 81 1015.9
20260507194142 14 250 9.7 14.5 0.00 0.10 0.10 81 1016.1
20260507193641 14 278 4.8 14.5 0.00 0.10 0.10 81 1016.0
20260507193140 14 254 8.0 14.5 0.00 0.10 0.10 81 1016.0
20260507192639 14 250 8.0 14.5 0.00 0.10 0.10 81 1016.0
20260507191638 15 263 6.4 14.5 0.00 0.10 0.10 81 1015.8
20260507191138 15 247 4.8 12.9 0.00 0.10 0.10 81 1015.8
20260507190137 15 268 9.7 11.3 0.00 0.10 0.10 80 1015.7
20260507185637 15 247 6.4 9.7 0.00 0.10 0.10 80 1015.6
20260507185136 15 247 6.4 9.7 0.00 0.10 0.10 80 1015.8
20260507184636 15 270 6.4 9.7 0.00 0.10 0.10 80 1015.6
20260507183634 15 239 3.2 9.7 0.00 0.10 0.10 79 1015.7
20260507183134 15 291 3.2 9.7 0.00 0.10 0.10 79 1015.6
20260507182633 15 242 3.2 11.3 0.00 0.10 0.10 79 1015.5
20260507182133 15 289 1.6 11.3 0.00 0.10 0.10 79 1015.5
20260507181632 15 266 3.2 11.3 0.00 0.10 0.10 78 1015.6
20260507181132 15 257 8.0 11.3 0.00 0.10 0.10 78 1015.4
20260507175630 16 263 4.8 16.1 0.00 0.10 0.10 76 1015.4
20260507175130 16 267 9.7 14.5 0.00 0.10 0.10 76 1015.1
20260507174629 16 236 8.0 9.7 0.00 0.10 0.10 75 1015.2
20260507173628 17 232 3.2 11.3 0.00 0.10 0.10 73 1015.0
20260507173127 16 280 4.8 11.3 0.00 0.10 0.10 74 1015.1
20260507172627 16 196 4.8 12.9 0.00 0.10 0.10 74 1014.8
20260507172127 16 258 4.8 16.1 0.00 0.10 0.10 75 1015.1
20260507171125 17 254 11.3 14.5 0.00 0.10 0.10 74 1014.8
20260507170625 17 267 4.8 16.1 0.00 0.10 0.10 75 1014.7
20260507170125 17 257 6.4 16.1 0.00 0.10 0.10 75 1014.8
20260507165623 17 255 9.7 14.5 0.00 0.10 0.10 75 1014.6
20260507165124 17 266 6.4 12.9 0.00 0.10 0.10 75 1014.8
20260507164622 17 259 8.0 12.9 0.00 0.10 0.10 75 1014.6
20260507164123 17 258 4.8 12.9 0.00 0.10 0.10 75 1014.8
20260507163621 17 233 3.2 12.9 0.00 0.10 0.10 75 1014.7
20260507163122 17 245 9.7 12.9 0.00 0.10 0.10 75 1014.6
20260507162620 17 244 8.0 12.9 0.00 0.10 0.10 75 1015.0
20260507162121 17 246 3.2 22.5 0.00 0.10 0.10 75 1014.7
20260507161621 17 248 3.2 22.5 0.00 0.10 0.10 76 1015.0
20260507161120 17 289 11.3 16.1 0.00 0.10 0.10 75 1014.6
20260507160618 17 253 6.4 14.5 0.00 0.10 0.10 75 1014.8
20260507160118 18 273 8.0 16.1 0.00 0.10 0.10 74 1015.0
20260507155618 18 267 4.8 16.1 0.00 0.13 0.10 73 1014.8
20260507154617 18 231 4.8 14.5 0.00 0.15 0.10 74 1015.0
20260507154116 18 236 11.3 14.5 0.00 0.15 0.10 75 1015.0
20260507153616 19 237 4.8 14.5 0.00 0.15 0.10 71 1014.8
20260507152614 20 163 3.2 11.3 0.00 0.15 0.10 62 1014.8
20260507152114 20 161 6.4 9.7 0.00 0.15 0.10 62 1015.1
20260507151613 20 164 8.0 9.7 0.00 0.15 0.10 60 1014.8
20260507151114 20 154 0.0 8.0 0.00 0.15 0.10 59 1014.8
20260507150612 20 253 3.2 8.0 0.00 0.15 0.10 59 1015.0
20260507150113 20 241 3.2 8.0 0.00 0.15 0.10 59 1015.0
20260507145611 21 258 1.6 12.9 0.00 0.15 0.10 56 1014.8
20260507145112 20 324 1.6 12.9 0.00 0.15 0.10 56 1014.8
20260507144611 22 275 4.8 11.3 0.00 0.15 0.10 42 1014.8
20260507144110 21 106 1.6 11.3 0.00 0.15 0.10 44 1015.0
20260507143109 21 143 1.6 9.7 0.00 0.15 0.10 43 1014.8
20260507142608 21 245 6.4 9.7 0.00 0.15 0.10 46 1014.8
20260507142109 21 108 3.2 9.7 0.00 0.15 0.10 46 1015.0
20260507141607 21 258 4.8 9.7 0.00 0.15 0.10 44 1014.8
20260507141108 22 141 3.2 6.4 0.00 0.15 0.10 45 1015.0
20260507140607 22 281 3.2 6.4 0.00 0.15 0.10 46 1014.8
20260507140106 21 297 0.0 6.4 0.00 0.15 0.10 47 1015.0
20260507135606 22 204 1.6 6.4 0.00 0.15 0.10 46 1015.2
20260507135105 22 86 3.2 6.4 0.00 0.15 0.10 46 1015.1
20260507134605 21 108 1.6 8.0 0.00 0.15 0.10 48 1015.3
20260507134104 21 79 6.4 8.0 0.00 0.15 0.10 47 1015.3
20260507133604 21 94 4.8 8.0 0.00 0.15 0.10 48 1015.4
20260507133103 21 118 0.0 9.7 0.00 0.15 0.10 48 1015.2
20260507132603 22 264 6.4 9.7 0.00 0.15 0.10 46 1015.4
20260507131601 22 125 3.2 9.7 0.00 0.15 0.10 47 1015.4
20260507131101 22 56 3.2 9.7 0.00 0.15 0.10 48 1015.4
20260507130600 21 185 1.6 9.7 0.00 0.15 0.10 47 1015.3
20260507130100 22 46 4.8 9.7 0.00 0.15 0.10 47 1015.5
20260507125600 21 99 3.2 8.0 0.00 0.15 0.10 48 1015.5
20260507125058 22 32 1.6 11.3 0.00 0.15 0.10 46 1015.3
20260507124558 22 91 4.8 11.3 0.00 0.15 0.10 48 1015.6
20260507124058 21 66 3.2 11.3 0.00 0.15 0.10 49 1015.5
20260507123557 21 347 1.6 11.3 0.00 0.15 0.10 46 1015.2
20260507123057 21 22 0.0 9.7 0.00 0.15 0.10 48 1015.4
20260507122056 21 101 4.8 11.3 0.00 0.15 0.10 48 1015.5
20260507121556 21 317 1.6 11.3 0.00 0.15 0.10 47 1015.4
20260507121055 21 142 0.0 11.3 0.00 0.15 0.10 47 1015.4
20260507120555 21 279 1.6 9.7 0.00 0.15 0.10 50 1015.5
20260507120054 21 207 0.0 8.0 0.00 0.15 0.10 51 1015.6
20260507115553 21 102 3.2 6.4 0.00 0.15 0.10 49 1015.5
20260507115053 21 154 0.0 9.7 0.00 0.15 0.10 49 1015.6
20260507114552 21 47 3.2 11.3 0.00 0.15 0.10 49 1015.6
20260507114052 21 79 4.8 12.9 0.00 0.15 0.10 49 1015.5
20260507113051 21 290 4.8 9.7 0.00 0.15 0.10 49 1015.6
20260507112050 22 237 1.6 8.0 0.00 0.15 0.10 48 1015.7
20260507111549 21 178 1.6 12.9 0.00 0.15 0.10 49 1015.6
20260507111049 21 103 4.8 12.9 0.00 0.15 0.10 54 1015.7
20260507110547 20 99 9.7 14.5 0.00 0.15 0.10 55 1015.8
20260507110048 20 105 4.8 14.5 0.00 0.15 0.10 55 1015.8
20260507105547 20 101 6.4 9.7 0.00 0.15 0.10 56 1015.6
20260507105047 20 122 1.6 9.7 0.00 0.15 0.10 56 1016.1
20260507104546 19 268 0.0 9.7 0.00 0.15 0.10 58 1016.0
20260507104046 19 79 4.8 11.3 0.00 0.15 0.10 56 1015.9
20260507103545 19 104 4.8 14.5 0.00 0.15 0.10 58 1016.2
20260507102543 19 66 3.2 12.9 0.00 0.15 0.10 54 1016.0
20260507102043 19 96 4.8 9.7 0.00 0.15 0.10 56 1016.0
20260507101043 19 89 1.6 8.0 0.00 0.15 0.10 58 1016.1
20260507100541 19 322 0.0 9.7 0.00 0.15 0.10 57 1016.1
20260507100042 18 72 9.7 9.7 0.00 0.15 0.10 62 1016.2
20260507095540 18 99 3.2 9.7 0.00 0.15 0.10 61 1016.0
20260507095041 17 144 3.2 12.9 0.00 0.15 0.10 64 1016.0
20260507094540 17 11 3.2 12.9 0.00 0.15 0.10 65 1016.1
20260507094039 17 89 0.0 9.7 0.00 0.15 0.10 65 1016.1
20260507093538 17 21 0.0 9.7 0.00 0.15 0.10 66 1016.0
20260507093038 17 262 4.8 8.0 0.00 0.15 0.10 65 1016.2
20260507092538 17 71 3.2 8.0 0.00 0.15 0.10 64 1016.4
20260507092038 17 91 1.6 6.4 0.00 0.15 0.10 66 1016.4
20260507091537 16 263 1.6 6.4 0.00 0.15 0.10 69 1016.3
20260507090535 16 273 3.2 9.7 0.00 0.15 0.10 70 1016.4
20260507090035 16 142 3.2 9.7 0.00 0.15 0.10 71 1016.4
20260507085534 16 49 0.0 8.0 0.00 0.15 0.10 71 1016.0
20260507085033 16 106 6.4 6.4 0.00 0.15 0.10 69 1016.2
20260507084533 17 169 1.6 6.4 0.00 0.15 0.10 68 1016.1
20260507084013 16 256 1.6 9.7 0.00 0.15 0.10 67 1016.3
20260507083513 17 97 8.0 9.7 0.00 0.15 0.10 66 1016.1
20260507083012 17 72 1.6 12.9 0.00 0.15 0.10 64 1016.0
20260507082011 18 214 4.8 8.0 0.00 0.15 0.10 64 1016.0
20260507081511 17 170 3.2 11.3 0.00 0.15 0.10 66 1016.0
20260507081011 17 112 0.0 9.7 0.00 0.15 0.10 67 1015.9
20260507080509 16 107 4.8 9.7 0.00 0.15 0.10 68 1015.7
20260507080010 16 123 6.4 12.9 0.00 0.15 0.10 69 1015.8
20260507075509 16 55 6.4 17.7 0.00 0.15 0.10 70 1015.8
20260507075009 17 143 4.8 17.7 0.00 0.15 0.10 65 1015.8
20260507074507 17 103 3.2 12.9 0.00 0.15 0.10 65 1015.7
20260507073507 16 119 6.4 19.3 0.00 0.15 0.10 69 1015.6
20260507073006 16 43 6.4 19.3 0.00 0.15 0.10 69 1015.6
20260507072006 16 244 4.8 12.9 0.00 0.15 0.10 70 1015.5
20260507071505 16 91 4.8 12.9 0.00 0.15 0.10 72 1015.4
20260507071004 16 312 6.4 11.3 0.00 0.15 0.10 71 1015.3
20260507070504 17 79 4.8 9.7 0.00 0.15 0.10 67 1015.3
20260507070005 17 236 3.2 9.7 0.00 0.15 0.10 68 1015.5
20260507065503 17 271 4.8 8.0 0.00 0.15 0.10 67 1015.3
20260507065003 17 194 0.0 9.7 0.00 0.15 0.10 68 1015.2
20260507064501 16 245 3.2 14.5 0.00 0.15 0.10 72 1015.3
20260507064002 16 85 1.6 14.5 0.00 0.15 0.10 73 1015.3
20260507063000 15 118 1.6 16.1 0.00 0.15 0.10 76 1015.3
20260507062459 15 285 3.2 9.7 0.00 0.15 0.10 77 1015.2
20260507062000 15 86 4.8 9.7 0.00 0.15 0.10 77 1015.1
20260507061459 15 358 3.2 11.3 0.00 0.15 0.10 77 1015.1
20260507060958 15 128 3.2 11.3 0.00 0.15 0.10 78 1015.3
20260507060457 15 239 1.6 9.7 0.00 0.15 0.10 79 1015.2
20260507055957 14 341 1.6 11.3 0.00 0.15 0.10 78 1015.1
20260507055457 13 250 1.6 11.3 0.00 0.15 0.10 81 1015.0
20260507054958 13 143 3.2 9.7 0.00 0.15 0.10 81 1015.1
20260507054455 13 173 3.2 9.7 0.00 0.15 0.10 82 1015.1
20260507053955 13 39 4.8 8.0 0.00 0.15 0.10 81 1015.0
20260507053455 13 145 4.8 8.0 0.00 0.15 0.10 81 1015.2
20260507052955 13 86 4.8 12.9 0.00 0.15 0.10 82 1015.0
20260507052453 13 230 4.8 12.9 0.00 0.15 0.10 83 1015.0
20260507051953 13 330 3.2 12.9 0.00 0.15 0.10 84 1014.8
20260507051453 13 214 0.0 8.0 0.00 0.15 0.10 84 1015.0
20260507050451 12 106 4.8 12.9 0.00 0.15 0.10 86 1014.5
20260507045951 12 347 1.6 17.7 0.00 0.15 0.10 87 1014.5
20260507045451 12 79 9.7 17.7 0.00 0.15 0.10 88 1014.6
20260507044449 12 204 4.8 22.5 0.00 0.15 0.10 88 1014.3
20260507043449 12 83 4.8 12.9 0.00 0.15 0.10 88 1013.9
20260507042447 12 84 8.0 16.1 0.00 0.15 0.10 89 1014.0
20260507041946 12 69 3.2 17.7 0.00 0.15 0.10 89 1013.7
20260507041446 12 357 4.8 17.7 0.00 0.15 0.10 89 1013.5
20260507040945 12 170 3.2 20.9 0.00 0.15 0.10 89 1013.5
20260507040446 12 349 4.8 20.9 0.00 0.15 0.10 89 1013.4
20260507035945 12 330 1.6 19.3 0.00 0.15 0.10 89 1013.4
20260507035444 12 81 6.4 22.5 0.03 0.15 0.10 89 1013.5
20260507034944 12 151 3.2 22.5 0.03 0.15 0.10 89 1013.5
20260507034443 12 66 6.4 16.1 0.03 0.15 0.10 90 1013.6
20260507033942 12 47 6.4 20.9 0.05 0.15 0.10 90 1013.6
20260507033442 12 83 6.4 20.9 0.05 0.15 0.10 90 1013.6
20260507032942 12 78 9.7 16.1 0.05 0.15 0.10 90 1013.6
20260507032440 12 73 12.9 12.9 0.08 0.15 0.10 90 1013.7
20260507031941 12 259 3.2 11.3 0.08 0.15 0.10 89 1013.7
20260507031440 12 235 3.2 24.1 0.08 0.15 0.10 88 1014.0
20260507030939 12 169 6.4 24.1 0.05 0.15 0.10 89 1013.8
20260507030439 12 48 4.8 20.9 0.08 0.15 0.10 89 1013.9
20260507025437 12 109 8.0 19.3 0.08 0.13 0.08 90 1014.0
20260507024937 12 70 6.4 19.3 0.05 0.13 0.08 89 1014.0
20260507024437 12 72 11.3 17.7 0.08 0.13 0.08 89 1014.0
20260507023936 13 91 8.0 12.9 0.05 0.10 0.05 88 1013.9
20260507022936 13 155 3.2 14.5 0.05 0.10 0.05 88 1014.0
20260507022436 13 10 6.4 14.5 0.03 0.08 0.03 88 1013.7
20260507021434 13 186 3.2 14.5 0.03 0.08 0.03 85 1013.6
20260507020934 13 87 3.2 12.9 0.03 0.08 0.03 86 1013.6
20260507020433 13 165 4.8 9.7 0.03 0.08 0.03 86 1013.6
20260507015932 13 33 3.2 9.7 0.03 0.08 0.03 86 1013.7
20260507015432 13 111 8.0 8.0 0.00 0.05 0.00 86 1013.6
20260507014431 13 242 3.2 16.1 0.00 0.05 0.00 85 1013.8
20260507013931 13 210 3.2 12.9 0.00 0.05 0.00 85 1013.8
20260507013430 13 267 4.8 11.3 0.00 0.05 0.00 84 1013.8
20260507012929 13 224 4.8 14.5 0.00 0.05 0.00 84 1013.9
20260507012429 13 69 4.8 14.5 0.00 0.05 0.00 84 1013.8
20260507011928 13 187 6.4 9.7 0.00 0.05 0.00 83 1013.8
20260507011428 13 128 1.6 11.3 0.00 0.05 0.00 83 1013.7
20260507010426 13 235 6.4 19.3 0.00 0.05 0.00 82 1013.5
20260507005927 13 284 6.4 19.3 0.00 0.05 0.00 82 1013.7
20260507005425 13 143 4.8 12.9 0.00 0.05 0.00 82 1013.6
20260507004926 13 276 6.4 12.9 0.00 0.05 0.00 82 1013.6